Wind_Speed
13 12 11 10 9 7 6 4 1 1 2 3 4 4 4 5 4 5 5 6 7 7 8 8 7 7 7 6 6 6 6 5 5 6 7 7 7 7 7 8 8 8 8 8
14 13 12 11 11 9 7 5 3 2 3 4 3 4 3 4 4 4 5 5 6 7 7 7 6 6 6 6 6 6 6 6 5 6 7 7 8 8 8 8 9 8 9 8
14 14 14 13 12 11 9 7 6 5 4 4 4 5 4 4 4 5 6 6 6 6 6 5 5 5 5 5 5 5 6 6 6 6 7 8 8 8 8 8 8 9 9 9
15 15 15 13 12 12 10 9 7 6 6 5 6 6 5 5 5 5 5 6 6 5 5 5 4 4 5 5 4 5 6 6 6 6 7 8 8 8 8 9 9 9 10 10
16 16 15 14 13 13 10 10 9 7 7 6 6 6 5 5 5 6 5 6 6 6 6 6 5 5 5 5 5 5 6 6 6 7 7 8 8 8 9 9 9 9 10 11
16 17 16 14 14 14 12 11 10 9 8 8 7 7 6 6 6 7 7 7 8 8 7 7 6 7 6 6 6 6 6 6 7 7 8 8 8 9 10 10 10 10 11 12
17 16 16 15 15 15 13 12 12 11 10 10 9 9 7 6 7 7 7 7 7 8 8 8 8 8 7 6 6 7 7 8 8 8 8 9 9 10 11 11 11 12 13 14
17 16 15 15 15 14 13 13 12 12 12 11 10 10 10 8 8 8 8 7 8 8 9 8 9 9 9 9 8 8 9 9 9 9 9 10 11 11 12 12 13 14 14 15
18 17 16 17 16 16 15 15 14 14 13 13 11 10 10 10 10 9 8 8 8 9 9 9 10 10 10 10 10 10 10 10 11 11 11 11 12 12 13 14 14 15 16 17
19 18 18 18 18 18 18 16 17 16 15 15 13 12 11 12 11 11 10 9 9 9 9 10 10 11 10 10 10 11 12 12 12 12 13 12 13 14 14 15 16 16 17 17
21 20 20 20 20 20 20 19 18 18 18 17 16 14 13 12 11 11 11 11 10 10 10 11 11 11 11 11 12 12 13 13 13 13 13 13 14 14 15 16 17 17 17 18
22 22 22 22 21 21 22 21 20 19 19 19 18 15 14 14 13 13 12 11 11 11 11 12 12 12 12 12 13 14 13 14 14 14 14 14 14 15 15 16 17 17 18 18
23 24 23 23 24 23 23 23 22 21 21 20 19 17 15 15 15 14 13 12 11 12 12 13 13 12 13 14 15 14 14 14 14 15 15 14 15 16 16 16 17 18 19 19
25 25 25 24 24 24 24 24 23 23 23 22 20 19 18 18 17 16 15 13 13 13 13 13 13 13 13 15 15 16 15 15 15 16 16 17 17 17 17 17 18 19 19 20
25 26 25 24 23 24 25 25 25 25 24 24 22 20 19 19 18 17 16 16 15 15 15 14 14 14 15 15 16 16 17 17 17 18 18 18 19 19 19 19 19 20 20 21
25 26 26 25 24 24 25 26 25 26 26 25 23 22 21 20 18 18 18 18 18 18 18 17 16 17 17 17 18 18 18 18 18 19 19 21 21 20 20 20 21 21 22 22
25 26 26 26 25 26 26 25 26 26 26 25 24 22 21 20 20 20 20 20 20 19 19 19 19 19 19 20 19 19 19 19 20 21 22 22 22 21 22 22 22 22 22 22
26 26 26 27 27 29 26 25 25 26 26 25 25 24 23 21 21 22 22 22 21 21 21 21 21 21 21 22 22 22 21 21 21 22 23 23 23 23 23 24 23 23 23 23
27 27 27 28 29 28 28 26 25 25 25 25 24 23 23 23 22 22 23 24 24 24 23 23 23 23 23 23 23 23 22 22 22 22 23 24 24 25 25 25 24 24 24 25
30 29 29 29 29 30 28 27 27 26 26 24 23 23 23 23 23 22 23 24 25 24 24 24 23 23 24 24 24 23 23 24 24 24 25 26 26 26 26 26 26 26 26 27
31 31 31 31 31 30 29 28 28 28 26 25 25 25 25 25 24 24 24 25 25 25 25 26 25 25 25 25 26 26 26 26 27 27 28 28 27 27 27 27 27 27 28 28
31 31 32 32 32 31 29 29 29 29 28 27 27 26 26 25 25 25 25 26 26 26 26 26 27 27 26 27 27 28 28 29 29 29 29 29 28 28 28 28 28 28 29 29
32 32 32 32 31 30 29 29 30 29 29 28 28 27 27 27 27 27 26 26 26 26 26 27 27 27 27 27 28 29 30 29 29 29 28 28 29 29 29 28 28 28 29 29
32 32 32 32 31 31 31 31 31 31 30 29 29 29 28 28 28 28 27 26 26 26 26 27 27 28 29 29 29 30 29 29 29 29 28 27 28 28 28 28 28 27 28 29
32 32 32 32 32 32 32 32 32 31 30 29 29 29 29 29 28 28 27 27 27 27 26 26 27 28 29 29 30 29 29 29 29 29 28 28 28 28 28 28 28 28 28 29
31 31 32 31 31 32 31 31 31 31 30 30 30 30 30 30 29 28 27 27 27 27 27 27 28 29 29 29 29 29 29 29 29 29 29 28 28 28 28 28 29 29 29 29
Wind_Direction
218 215 216 219 222 227 225 220 229 334 337 343 359 356 357 349 355 7 10 13 17 22 26 27 31 37 39 35 29 26 24 24 24 21 17 14 11 8 3 360 2 2 359 354
220 215 218 222 221 223 228 234 243 275 299 309 330 342 332 330 337 346 351 352 359 6 15 22 23 29 35 35 34 27 19 16 14 9 4 0 1 358 357 355 351 352 350 347
224 220 222 221 221 225 234 239 246 256 277 298 319 329 322 319 325 336 343 344 344 352 1 6 10 19 18 22 24 15 9 8 3 354 349 349 345 341 341 342 342 342 343 344
221 220 226 226 225 231 234 243 251 263 273 293 306 319 322 320 316 321 326 335 335 333 346 350 342 346 354 359 2 359 3 358 351 348 343 338 337 336 335 338 336 339 343 342
218 220 226 227 229 232 238 245 250 258 272 286 295 300 313 315 310 311 314 319 322 321 318 324 327 322 333 341 337 337 346 344 338 335 332 327 329 331 330 330 330 332 335 336
221 224 227 224 228 234 238 244 247 255 265 278 287 287 289 301 311 316 318 311 311 314 314 307 312 319 321 320 319 323 330 326 324 322 323 324 325 325 324 320 322 324 326 327
221 223 227 230 233 236 241 246 251 254 261 272 279 279 282 296 304 307 305 311 313 315 314 310 305 307 305 301 307 315 318 316 317 316 318 321 321 319 318 317 319 322 322 320
219 220 224 230 234 238 244 249 254 261 265 269 274 278 283 289 293 300 298 301 310 313 311 312 310 300 294 294 297 303 312 314 316 317 317 318 317 316 315 315 315 317 318 319
220 219 224 229 234 239 247 251 255 261 267 272 275 282 284 286 292 297 298 299 307 308 305 303 304 303 295 294 296 300 307 312 315 316 316 311 310 312 313 314 315 314 314 315
219 220 224 231 237 239 245 250 254 260 266 271 275 281 290 288 289 291 290 293 298 298 299 300 300 300 293 292 296 296 301 307 309 311 314 314 313 310 309 311 313 312 311 314
226 227 230 236 240 245 249 252 256 259 263 269 274 279 285 286 286 289 291 292 291 291 296 296 298 299 295 293 296 296 299 302 305 308 311 311 313 313 312 311 311 313 312 312
233 233 234 238 242 246 249 250 254 258 262 269 273 276 280 282 286 286 290 291 292 292 298 304 301 300 301 298 297 299 302 303 302 304 307 309 312 314 313 313 313 314 314 311
237 237 236 238 241 246 249 250 252 255 260 266 271 273 275 281 285 287 286 288 292 294 299 306 305 301 302 304 304 300 300 301 299 300 302 304 308 310 312 313 314 312 313 311
237 240 241 244 249 250 249 250 251 254 259 264 268 271 272 277 280 281 282 283 287 290 295 303 306 306 305 306 308 305 297 297 295 296 299 301 303 305 307 310 311 311 312 311
238 242 245 246 248 249 251 253 253 254 259 264 266 268 270 274 276 279 282 282 283 286 290 296 299 301 302 303 305 304 297 296 293 294 296 298 299 301 303 306 308 309 309 308
241 246 247 246 246 249 253 252 252 254 258 263 265 267 269 272 274 277 280 280 282 285 288 291 294 296 298 299 300 301 299 298 295 296 297 298 299 300 301 303 305 305 306 308
244 248 249 248 248 251 254 254 254 257 260 262 264 268 272 275 274 277 279 278 282 284 288 292 294 293 295 296 296 297 298 298 297 297 298 299 298 298 299 301 302 303 303 304
244 246 248 249 250 252 255 254 256 259 261 264 266 270 272 272 274 275 276 277 279 283 287 290 293 292 291 292 293 294 295 296 297 298 299 300 298 299 299 300 299 300 302 302
242 243 246 248 250 253 254 255 259 261 263 263 265 270 273 273 275 274 274 276 278 282 285 287 289 289 289 290 290 291 293 294 294 296 297 297 297 299 299 299 299 298 300 301
242 243 246 249 252 254 257 259 260 262 263 266 267 270 273 274 274 274 274 275 277 282 284 284 285 287 286 288 288 288 289 291 294 294 295 296 296 298 297 298 298 298 299 300
242 244 246 249 253 256 258 260 261 262 265 267 269 272 274 275 274 274 274 275 277 281 282 282 281 283 284 284 285 285 288 290 291 291 292 292 294 295 295 296 295 296 297 299
243 245 247 250 254 256 258 259 261 263 265 266 267 270 272 272 273 274 275 275 276 278 280 281 281 281 283 283 283 286 289 292 293 291 292 293 294 295 294 293 293 294 296 297
244 247 249 251 254 256 257 259 261 263 264 265 267 268 269 271 273 275 277 277 275 275 277 279 280 280 282 284 286 286 289 292 295 294 295 296 294 295 296 295 294 294 295 296
245 248 251 252 254 255 256 257 259 261 263 264 265 267 268 271 273 275 276 276 276 277 278 279 279 281 283 284 285 287 290 291 293 296 297 296 295 295 295 295 295 296 296 297
247 249 251 253 253 253 255 256 259 260 262 264 265 267 269 270 272 273 274 275 276 278 280 281 280 283 285 286 287 288 290 293 295 296 296 297 296 297 296 295 296 297 298 299
249 251 252 253 252 254 255 257 258 260 262 265 267 267 269 269 270 272 274 275 275 275 278 280 281 283 285 285 286 288 290 292 294 295 296 296 297 298 297 296 297 297 298 298
Height
5892 5895 5896 5897 5898 5899 5899 5900 5899 5900 5899 5899 5898 5898 5897 5896 5895 5894 5893 5892 5891 5890 5889 5888 5887 5885 5884 5883 5883 5882 5881 5880 5880 5879 5878 5877 5876 5875 5873 5872 5870 5869 5867 5866
5891 5893 5894 5895 5896 5897 5898 5898 5898 5899 5898 5898 5897 5897 5896 5896 5895 5894 5893 5892 5891 5890 5889 5888 5887 5886 5885 5884 5883 5882 5881 5881 5880 5879 5878 5877 5876 5874 5873 5872 5870 5868 5867 5865
5889 5891 5892 5893 5895 5896 5897 5897 5898 5898 5897 5897 5897 5897 5896 5896 5895 5894 5893 5892 5891 5890 5889 5888 5887 5886 5885 5884 5883 5882 5881 5880 5880 5879 5877 5876 5875 5874 5872 5871 5869 5868 5866 5865
5887 5888 5890 5891 5893 5894 5895 5896 5896 5896 5896 5896 5896 5896 5896 5895 5894 5894 5893 5892 5890 5889 5888 5888 5887 5885 5884 5884 5883 5882 5881 5880 5879 5878 5877 5876 5874 5873 5871 5870 5868 5867 5865 5863
5885 5886 5887 5889 5891 5892 5893 5894 5894 5895 5895 5895 5895 5895 5896 5894 5894 5893 5893 5892 5890 5889 5888 5887 5886 5885 5884 5883 5882 5881 5880 5879 5878 5877 5876 5875 5873 5872 5870 5869 5867 5865 5864 5862
5882 5884 5885 5887 5889 5890 5891 5892 5892 5893 5893 5894 5894 5893 5894 5893 5893 5892 5892 5891 5889 5888 5887 5885 5884 5883 5882 5882 5881 5880 5879 5878 5877 5875 5874 5873 5872 5870 5869 5867 5866 5864 5862 5860
5879 5881 5883 5885 5886 5888 5889 5890 5891 5891 5891 5892 5892 5891 5893 5892 5892 5891 5890 5889 5888 5887 5885 5884 5883 5882 5881 5880 5879 5878 5877 5876 5875 5874 5872 5871 5870 5869 5867 5866 5864 5862 5860 5858
5876 5879 5881 5882 5884 5885 5886 5888 5889 5889 5889 5890 5890 5889 5891 5891 5890 5889 5888 5887 5886 5885 5883 5882 5881 5879 5878 5878 5877 5876 5875 5874 5873 5872 5870 5869 5868 5867 5865 5864 5862 5860 5858 5855
5873 5876 5878 5879 5881 5882 5883 5884 5886 5887 5886 5887 5887 5888 5888 5888 5887 5886 5886 5885 5884 5883 5881 5880 5879 5878 5876 5875 5875 5874 5873 5872 5871 5870 5868 5867 5865 5864 5863 5861 5859 5857 5854 5852
5869 5872 5874 5876 5877 5879 5880 5881 5883 5883 5883 5884 5885 5885 5886 5885 5885 5885 5884 5883 5882 5881 5880 5878 5877 5876 5874 5873 5873 5872 5871 5870 5868 5867 5866 5864 5863 5861 5859 5858 5855 5853 5851 5849
5865 5869 5871 5872 5873 5875 5877 5878 5879 5880 5880 5881 5881 5884 5883 5882 5882 5882 5881 5881 5880 5878 5877 5876 5875 5873 5872 5871 5870 5869 5868 5867 5866 5864 5863 5861 5860 5858 5856 5854 5852 5850 5847 5845
5861 5863 5866 5868 5869 5870 5872 5874 5875 5877 5877 5877 5878 5882 5879 5879 5879 5879 5878 5877 5876 5876 5874 5873 5872 5871 5870 5869 5868 5866 5865 5864 5862 5861 5859 5858 5856 5854 5852 5850 5848 5846 5844 5842
5855 5858 5860 5862 5865 5866 5867 5869 5870 5872 5873 5873 5874 5878 5876 5876 5875 5875 5875 5874 5873 5873 5872 5870 5869 5868 5867 5866 5864 5863 5862 5860 5859 5857 5856 5854 5853 5851 5849 5847 5844 5842 5840 5838
5850 5852 5856 5858 5860 5861 5862 5864 5865 5867 5868 5869 5870 5872 5872 5872 5872 5872 5871 5871 5870 5870 5869 5868 5866 5865 5864 5863 5861 5859 5858 5857 5855 5853 5852 5850 5849 5847 5845 5843 5841 5838 5836 5833
5844 5846 5849 5852 5854 5856 5857 5859 5860 5862 5863 5865 5866 5866 5868 5868 5868 5868 5867 5867 5866 5866 5865 5864 5863 5862 5861 5859 5857 5856 5854 5853 5851 5849 5847 5846 5844 5842 5840 5838 5836 5834 5831 5829
5838 5841 5843 5846 5848 5850 5851 5853 5855 5856 5858 5859 5860 5861 5863 5863 5863 5863 5863 5863 5863 5862 5861 5860 5859 5858 5856 5855 5854 5852 5850 5849 5847 5845 5842 5841 5839 5837 5835 5833 5831 5828 5826 5824
5833 5835 5837 5839 5842 5843 5845 5848 5850 5851 5852 5854 5855 5857 5857 5858 5859 5859 5859 5858 5858 5857 5856 5855 5853 5852 5851 5850 5849 5848 5846 5844 5842 5840 5838 5835 5833 5831 5829 5827 5825 5823 5821 5818
5828 5829 5831 5833 5836 5837 5842 5843 5844 5845 5846 5848 5850 5851 5852 5853 5853 5853 5853 5853 5852 5852 5850 5849 5848 5847 5846 5845 5843 5842 5840 5839 5836 5834 5832 5830 5828 5826 5824 5822 5820 5818 5815 5813
5822 5824 5825 5827 5828 5831 5834 5836 5837 5839 5840 5842 5844 5845 5846 5847 5847 5847 5847 5847 5846 5846 5845 5844 5842 5841 5840 5839 5837 5836 5834 5832 5829 5828 5826 5824 5822 5820 5818 5816 5814 5812 5809 5807
5816 5817 5820 5821 5822 5824 5829 5830 5831 5834 5834 5837 5838 5839 5840 5840 5841 5842 5841 5840 5840 5839 5838 5838 5837 5835 5834 5833 5831 5829 5827 5825 5823 5821 5819 5817 5815 5813 5811 5809 5807 5805 5802 5800
5809 5811 5812 5814 5816 5818 5821 5823 5825 5828 5830 5831 5831 5832 5833 5833 5834 5835 5834 5833 5833 5832 5832 5831 5830 5829 5827 5826 5824 5822 5820 5818 5816 5814 5812 5810 5808 5806 5803 5801 5799 5797 5795 5793
5802 5804 5806 5808 5810 5814 5815 5816 5818 5820 5822 5823 5824 5825 5826 5826 5826 5826 5826 5826 5825 5825 5824 5823 5822 5821 5819 5818 5817 5815 5813 5811 5809 5806 5804 5802 5800 5798 5795 5793 5791 5789 5787 5785
5794 5797 5799 5802 5805 5806 5808 5810 5811 5813 5814 5815 5816 5818 5818 5819 5819 5819 5819 5818 5818 5817 5817 5816 5815 5813 5812 5811 5809 5807 5805 5803 5801 5799 5796 5794 5792 5790 5787 5785 5784 5782 5779 5777
5787 5790 5792 5794 5797 5798 5800 5802 5804 5805 5807 5808 5809 5810 5810 5811 5811 5811 5811 5810 5810 5809 5809 5808 5807 5805 5804 5803 5801 5799 5798 5796 5794 5791 5789 5786 5784 5782 5780 5778 5776 5774 5771 5769
5780 5782 5784 5786 5789 5791 5793 5794 5796 5798 5799 5800 5801 5801 5802 5802 5803 5803 5803 5802 5802 5801 5801 5800 5799 5798 5796 5795 5793 5791 5790 5788 5786 5783 5781 5779 5777 5774 5772 5770 5768 5766 5763 5761
5772 5775 5777 5779 5781 5783 5785 5787 5788 5790 5791 5792 5793 5793 5793 5794 5794 5794 5794 5794 5793 5793 5792 5791 5790 5789 5788 5787 5785 5783 5782 5780 5778 5776 5773 5770 5769 5767 5765 5763 5760 5758 5755 5753